Flag for U.S.A. Weather past 2 weeks in New York, New York, U.S.A.

Now
58 °F

Clear.


Feels Like: 57 °F
Forecast: 55 / 66 °F
Wind: 6 mph from Southwest

Location: New York City - Central Park

Current Time: Oct 21, 2014 at 3:15:34 AM

Latest Report: Oct 21, 2014 at 2:51 AM


Visibility: 10 mi

Pressure: 29.92 "Hg

Humidity: 58%

Dew point: 43 °F

Location of New YorkLocation

Historic Weather in New York — Graph

°F

New York temperature yesterday

Maximum temperature yesterday: 59 °F (at 2:51 PM)
Minimum temperature yesterday: 42 °F (at 2:51 AM)
Average temperature yesterday: 51 °F

Past Weeks' High & Low Weather Summary

 TemperatureHumidityPressure
High77 °F (Oct 15, 1:51 PM)94% (Oct 16, 11:51 AM)30.34 "Hg (Oct 16, 11:51 AM)
Low42 °F (Oct 20, 2:51 AM)31% (Oct 9, 3:51 PM)29.56 "Hg (Oct 18, 1:51 PM)
Average61 °F63%29.98 "Hg
* Reported Oct 6 1:51 AM — Oct 21 1:51 AM, New York, Weather by CustomWeather, © 2014

Note: Actual official high and low records may vary slightly from our data, if they occured in-between our weather recording intervals... More about our weather records

Advertising

New York weather history for previous 24 hours

 ConditionsComfort  
Time TempWeatherWind HumidityBarometerVisibility
1:51 AM
Oct 21
58 °FClear.N/A58%29.93 "Hg10 mi
12:51 AM59 °FClear.6 mph51%29.96 "Hg10 mi
11:51 PM
Oct 20
58 °FClear.3 mph58%29.96 "Hg10 mi
10:51 PM58 °FClear.No wind60%29.97 "Hg10 mi
9:51 PM58 °FClear.N/A54%29.98 "Hg10 mi
8:51 PM56 °FClear.3 mph55%29.98 "Hg10 mi
7:51 PM57 °FClear.3 mph47%29.98 "Hg10 mi
6:51 PM57 °FSunny.N/A47%29.97 "Hg10 mi
5:51 PM58 °FSunny.5 mph46%29.98 "Hg10 mi
4:51 PM59 °FSunny.3 mph46%29.98 "Hg10 mi
3:51 PM59 °FSunny.7 mph42%29.99 "Hg10 mi
2:51 PM59 °FSunny.5 mph42%30.01 "Hg10 mi
1:51 PM57 °FSunny.7 mph42%30.03 "Hg10 mi
12:51 PM56 °FSunny.5 mph42%30.06 "Hg10 mi
11:51 AM52 °FPassing clouds.5 mph47%30.09 "Hg10 mi
10:51 AM51 °FSunny.N/A46%30.11 "Hg10 mi
9:51 AM48 °FSunny.No wind52%30.12 "Hg6 mi
8:51 AM47 °FSunny.6 mph50%30.12 "Hg10 mi
7:51 AM44 °FClear.6 mph55%30.10 "Hg10 mi
6:51 AM43 °FClear.3 mph58%30.09 "Hg10 mi
5:51 AM42 °FClear.No wind60%30.09 "Hg10 mi
4:51 AM43 °FClear.5 mph58%30.09 "Hg10 mi
3:51 AM43 °FClear.3 mph56%30.08 "Hg10 mi
Weather by CustomWeather, © 2014

See weather overviewHow to use our weather pages